This is the latest recevied weather packets stored in our database for station/object F8KHU-13. If no packets are shown the sender has not sent any weather packets the latest 10 day(s).
| Time | Temp. | Humidity | Pressure | Rain* | Wind** | Luminosity | Snow |
|---|---|---|---|---|---|---|---|
| 1777825538 | 16.11° C | 31% | 1013 hPa | 0.51 mm | - | 0 W/m² | - |
| 1777825518 | 16.11° C | 31% | 1013.1 hPa | 0.51 mm | - | 0 W/m² | - |
| 1777825497 | 16.11° C | 31% | 1013.2 hPa | 0.51 mm | - | 0 W/m² | - |
| 1777824638 | 16.11° C | 31% | 1013 hPa | 0.51 mm | - | 0 W/m² | - |
| 1777824618 | 16.11° C | 32% | 1013.2 hPa | 0.51 mm | - | 0 W/m² | - |
| 1777824598 | 16.11° C | 32% | 1013.1 hPa | 0.51 mm | - | 0 W/m² | - |
| 1777823738 | 16.11° C | 32% | 1013.2 hPa | 0.51 mm | - | 0 W/m² | - |
| 1777823698 | 16.11° C | 32% | 1013.2 hPa | 0.51 mm | - | 0 W/m² | - |
| 1777822838 | 15.56° C | 32% | 1013.3 hPa | 0.51 mm | - | 0 W/m² | - |
| 1777822818 | 15.56° C | 32% | 1013.3 hPa | 0.51 mm | - | 0 W/m² | - |
| 1777822798 | 15.56° C | 32% | 1013.3 hPa | 0.51 mm | - | 0 W/m² | - |
| 1777821938 | 16.67° C | 31% | 1013.3 hPa | 0 mm | - | 0 W/m² | - |
| 1777821918 | 16.67° C | 31% | 1013.4 hPa | 0 mm | - | 0 W/m² | - |
| 1777821898 | 16.67° C | 31% | 1013.3 hPa | 0 mm | - | 0 W/m² | - |
| 1777821034 | 16.67° C | 31% | 1013.4 hPa | 0 mm | - | 0 W/m² | - |
| 1777821013 | 16.67° C | 31% | 1013.4 hPa | 0 mm | - | 0 W/m² | - |
| 1777820994 | 16.11° C | 31% | 1013.4 hPa | 0 mm | - | 0 W/m² | - |
| 1777820134 | 17.78° C | 29% | 1013.6 hPa | 0 mm | - | 0 W/m² | - |
| 1777820114 | 17.78° C | 29% | 1013.5 hPa | 0 mm | - | 0 W/m² | - |
| 1777820094 | 17.78° C | 29% | 1013.5 hPa | 0 mm | - | 0 W/m² | - |
| 1777819234 | 20° C | 27% | 1013.4 hPa | 0 mm | - | 0 W/m² | - |
| 1777819214 | 20° C | 27% | 1013.4 hPa | 0 mm | - | 0 W/m² | - |
| 1777819193 | 20° C | 27% | 1013.4 hPa | 0 mm | - | 0 W/m² | - |
| 1777818334 | 19.44° C | 28% | 1013.3 hPa | 0 mm | - | 0 W/m² | - |
| 1777818314 | 19.44° C | 28% | 1013.4 hPa | 0 mm | - | 0 W/m² | - |
* Rain latest hour (hover to see other rain measurements)
** Current wind speed in m/s (hover to see current wind gust speed)